Time,TemperatureF,DewpointF,PressureIn,WindDirection,WindDirectionDegrees,WindSpeedMPH,WindSpeedGustMPH,Humidity,HourlyPrecipIn,Conditions,Clouds,dailyrainin,SoftwareType,DateUTC
2013-11-01 00:22:00,22.0,16.0,30.19,North,360,2.0,-999.0,78,-99.99,,,-99.99,,2013-11-01 06:22:00,
2013-11-01 00:52:00,22.0,17.0,30.19,West,281,1.0,-999.0,80,-99.99,,,-99.99,,2013-11-01 06:52:00,
2013-11-01 01:21:00,22.0,17.0,30.20,NW,305,2.0,-999.0,80,-99.99,,,-99.99,,2013-11-01 07:21:00,
2013-11-01 01:52:00,22.0,17.0,30.20,NNE,22,1.0,-999.0,80,-99.99,,,-99.99,,2013-11-01 07:52:00,
2013-11-01 02:21:00,22.0,18.0,30.21,WNW,294,0.0,-999.0,83,-99.99,,,-99.99,,2013-11-01 08:21:00,
2013-11-01 02:52:00,22.0,17.0,30.21,WSW,238,1.0,-999.0,82,-99.99,,,-99.99,,2013-11-01 08:52:00,
2013-11-01 03:21:00,22.0,16.0,30.20,WNW,288,1.0,-999.0,77,-99.99,,,-99.99,,2013-11-01 09:21:00,
2013-11-01 03:53:00,23.0,17.0,30.21,NNW,342,2.0,-999.0,76,-99.99,,,-99.99,,2013-11-01 09:53:00,
2013-11-01 04:23:00,22.0,17.0,30.20,SW,217,2.0,-999.0,80,-99.99,,,-99.99,,2013-11-01 10:23:00,
2013-11-01 04:52:00,23.0,16.0,30.21,SW,230,1.0,-999.0,75,-99.99,,,-99.99,,2013-11-01 10:52:00,
2013-11-01 05:22:00,22.0,17.0,30.22,NNW,336,0.0,-999.0,80,-99.99,,,-99.99,,2013-11-01 11:22:00,
2013-11-01 05:52:00,23.0,17.0,30.23,WSW,238,2.0,-999.0,76,-99.99,,,-99.99,,2013-11-01 11:52:00,
2013-11-01 06:22:00,22.0,17.0,30.24,WSW,248,1.0,-999.0,81,-99.99,,,-99.99,,2013-11-01 12:22:00,
2013-11-01 06:42:00,22.0,16.0,30.25,South,185,1.0,-999.0,76,-99.99,,,-99.99,,2013-11-01 12:42:00,
2013-11-01 06:52:00,22.0,14.0,30.25,SW,235,2.0,-999.0,72,-99.99,,,-99.99,,2013-11-01 12:52:00,
2013-11-01 07:12:00,22.0,14.0,30.26,West,276,2.0,-999.0,72,-99.99,,,-99.99,,2013-11-01 13:12:00,
2013-11-01 07:22:00,22.0,15.0,30.26,SW,217,1.0,-999.0,74,-99.99,,,-99.99,,2013-11-01 13:22:00,
2013-11-01 07:52:00,22.0,14.0,30.28,WNW,293,3.0,-999.0,72,-99.99,,,-99.99,,2013-11-01 13:52:00,
2013-11-01 08:22:00,21.0,13.0,30.29,ENE,65,1.0,-999.0,70,-99.99,,,-99.99,,2013-11-01 14:22:00,
2013-11-01 08:52:00,22.0,13.0,30.31,SSW,197,2.0,-999.0,69,-99.99,,,-99.99,,2013-11-01 14:52:00,
2013-11-01 09:21:00,24.0,15.0,30.31,NNW,329,3.0,-999.0,68,-99.99,,,-99.99,,2013-11-01 15:21:00,
2013-11-01 09:43:00,24.0,15.0,30.32,SSW,199,2.0,-999.0,69,-99.99,,,-99.99,,2013-11-01 15:43:00,
2013-11-01 09:54:00,25.0,14.0,30.31,WSW,242,3.0,-999.0,63,-99.99,,,-99.99,,2013-11-01 15:54:00,
2013-11-01 10:23:00,25.0,14.0,30.32,NNW,331,4.0,-999.0,63,-99.99,,,-99.99,,2013-11-01 16:23:00,
2013-11-01 10:43:00,26.0,14.0,30.33,NNW,332,4.0,-999.0,60,-99.99,,,-99.99,,2013-11-01 16:43:00,
2013-11-01 10:53:00,26.0,14.0,30.32,NNW,329,3.0,-999.0,60,-99.99,,,-99.99,,2013-11-01 16:53:00,
2013-11-01 11:12:00,27.0,15.0,30.34,West,271,3.0,-999.0,60,-99.99,,,-99.99,,2013-11-01 17:12:00,
2013-11-01 11:22:00,28.0,16.0,30.35,NNE,19,2.0,-999.0,61,-99.99,,,-99.99,,2013-11-01 17:22:00,
2013-11-01 11:52:00,27.0,16.0,30.33,West,261,2.0,-999.0,64,-99.99,,,-99.99,,2013-11-01 17:52:00,
2013-11-01 12:22:00,27.0,16.0,30.35,NE,34,3.0,-999.0,64,-99.99,,,-99.99,,2013-11-01 18:22:00,
2013-11-01 12:52:00,28.0,16.0,30.35,NW,325,3.0,-999.0,61,-99.99,,,-99.99,,2013-11-01 18:52:00,
2013-11-01 13:21:00,30.0,17.0,30.34,WSW,255,3.0,-999.0,59,-99.99,,,-99.99,,2013-11-01 19:21:00,
2013-11-01 13:52:00,31.0,16.0,30.33,SW,232,3.0,-999.0,54,-99.99,,,-99.99,,2013-11-01 19:52:00,
2013-11-01 14:12:00,31.0,17.0,30.34,West,264,4.0,-999.0,55,-99.99,,,-99.99,,2013-11-01 20:12:00,
2013-11-01 14:22:00,30.0,15.0,30.33,SW,233,5.0,-999.0,54,-99.99,,,-99.99,,2013-11-01 20:22:00,
2013-11-01 14:42:00,30.0,16.0,30.33,SW,220,5.0,-999.0,56,-99.99,,,-99.99,,2013-11-01 20:42:00,
2013-11-01 14:52:00,30.0,16.0,30.33,SW,228,4.0,-999.0,55,-99.99,,,-99.99,,2013-11-01 20:52:00,
2013-11-01 15:22:00,31.0,18.0,30.35,NNW,340,4.0,-999.0,57,-99.99,,,-99.99,,2013-11-01 21:22:00,
2013-11-01 15:43:00,29.0,16.0,30.35,NNE,24,4.0,-999.0,59,-99.99,,,-99.99,,2013-11-01 21:43:00,
2013-11-01 15:55:00,29.0,16.0,30.37,NE,49,3.0,-999.0,59,-99.99,,,-99.99,,2013-11-01 21:55:00,
2013-11-01 16:24:00,28.0,15.0,30.37,NNE,15,1.0,-999.0,57,-99.99,,,-99.99,,2013-11-01 22:24:00,
2013-11-01 16:42:00,28.0,15.0,30.37,North,360,2.0,-999.0,58,-99.99,,,-99.99,,2013-11-01 22:42:00,
2013-11-01 16:53:00,28.0,15.0,30.37,West,263,4.0,-999.0,58,-99.99,,,-99.99,,2013-11-01 22:53:00,
2013-11-01 17:22:00,27.0,15.0,30.39,East,86,5.0,-999.0,59,-99.99,,,-99.99,,2013-11-01 23:22:00,
2013-11-01 17:34:00,27.0,15.0,30.39,East,86,5.0,-999.0,59,-99.99,,,-99.99,,2013-11-01 23:34:00,
2013-11-01 17:53:00,27.0,13.0,30.40,WSW,250,5.0,-999.0,56,-99.99,,,-99.99,,2013-11-01 23:53:00,
2013-11-01 18:22:00,26.0,13.0,30.40,WSW,240,4.0,-999.0,58,-99.99,,,-99.99,,2013-11-02 00:22:00,
2013-11-01 18:42:00,26.0,12.0,30.39,WSW,247,7.0,-999.0,56,-99.99,,,-99.99,,2013-11-02 00:42:00,
2013-11-01 18:52:00,25.0,13.0,30.40,WSW,243,6.0,-999.0,59,-99.99,,,-99.99,,2013-11-02 00:52:00,
2013-11-01 19:22:00,25.0,13.0,30.41,WSW,253,6.0,-999.0,59,-99.99,,,-99.99,,2013-11-02 01:22:00,
2013-11-01 19:42:00,25.0,12.0,30.41,West,277,5.0,-999.0,58,-99.99,,,-99.99,,2013-11-02 01:42:00,
2013-11-01 19:52:00,25.0,11.0,30.41,SW,229,5.0,-999.0,55,-99.99,,,-99.99,,2013-11-02 01:52:00,
2013-11-01 20:22:00,25.0,11.0,30.42,SW,234,6.0,-999.0,55,-99.99,,,-99.99,,2013-11-02 02:22:00,
2013-11-01 20:42:00,25.0,10.0,30.43,WSW,242,4.0,-999.0,53,-99.99,,,-99.99,,2013-11-02 02:42:00,
2013-11-01 20:52:00,25.0,8.0,30.43,WSW,248,4.0,-999.0,48,-99.99,,,-99.99,,2013-11-02 02:52:00,
2013-11-01 21:22:00,26.0,7.0,30.43,WSW,237,4.0,-999.0,44,-99.99,,,-99.99,,2013-11-02 03:22:00,
2013-11-01 21:44:00,26.0,8.0,30.44,WSW,240,5.0,-999.0,46,-99.99,,,-99.99,,2013-11-02 03:44:00,
2013-11-01 21:53:00,26.0,8.0,30.43,WSW,256,4.0,-999.0,45,-99.99,,,-99.99,,2013-11-02 03:53:00,
2013-11-01 22:24:00,26.0,6.0,30.44,SW,234,4.0,-999.0,41,-99.99,,,-99.99,,2013-11-02 04:24:00,
2013-11-01 22:43:00,26.0,5.0,30.45,WSW,254,2.0,-999.0,40,-99.99,,,-99.99,,2013-11-02 04:43:00,
2013-11-01 22:54:00,26.0,3.0,30.46,WSW,241,3.0,-999.0,37,-99.99,,,-99.99,,2013-11-02 04:54:00,
2013-11-01 23:22:00,26.0,3.0,30.47,West,271,0.0,-999.0,36,-99.99,,,-99.99,,2013-11-02 05:22:00,